Regional Weather Roundup
Issued by NWS

Home | Current Version | Previous Version | Graphics & Text | Print | Product List | Glossary On
Versions: 1 2 3 4 5 6 7 8 9 10 11 12 13 14 15 16 17 18 19 20 21 22 23 24 25 26 27 28 29 30 31 32 33 34 35 36 37 38 39 40 41 42 43 44 45 46 47 48
581
ASUS45 KPSR 071110
RWRAZ

ARIZONA HOURLY REGIONAL WEATHER ROUNDUP
NATIONAL WEATHER SERVICE PHOENIX AZ
400 AM MST WED DEC 07 2016

NOTE: FAIR INDICATES FEW OR NO CLOUDS BELOW 12,000 FEET WITH NO
SIGNIFICANT WEATHER AND/OR OBSTRUCTIONS TO VISIBILITY.

AZZ001>003-036-071200-
NORTHWEST ARIZONA

CITY           SKY/WX    TMP DP  RH WIND       PRES   REMARKS
BULLHEAD CITY  PTCLDY    50  32  50 NE7       29.94S
KINGMAN        PTCLDY    37  27  67 SE12      29.95R WCI  29
$$

AZZ004>008-015-016-018-071200-
NORTH CENTRAL ARIZONA

CITY           SKY/WX    TMP DP  RH WIND       PRES   REMARKS
GRAND CANYON   CLOUDY    33  32  96 SW9       29.95F WCI  25
PRESCOTT       PTCLDY    35  33  92 SE6       29.96S WCI  30
FLAGSTAFF      CLOUDY    32  29  88 SW8       29.95S WCI  25
PAYSON         CLOUDY    41  37  87 CALM      30.00S
PAGE           PTCLDY    37   9  31 NW7       29.97R WCI  32
$$

AZZ009>014-017-071200-
NORTHEAST ARIZONA

CITY           SKY/WX    TMP DP  RH WIND       PRES   REMARKS
WINSLOW        PTCLDY    34  29  82 CALM      29.95R
SAINT JOHNS    CLEAR     35  29  78 NW3       29.94R
WINDOW ROCK    PTCLDY    32  24  72 SW9       29.92S WCI  24
SHOW LOW       PTCLDY    36  30  80 S30       29.94S WCI  22
$$

AZZ023-071200-
GREATER PHOENIX AREA

CITY           SKY/WX    TMP DP  RH WIND       PRES   REMARKS
PHOENIX        MOCLDY    50  41  71 SE5       29.93R
BUCKEYE          N/A     45  45 100 N5        29.95S
LUKE AFB       CLEAR     47  42  84 N6        29.92S
DEER VALLEY    PTCLDY    48  43  82 CALM      29.93S
SCOTTSDALE     CLEAR     49  43  80 CALM      29.95R
MESA-GATEWAY   CLEAR     45  34  65 E7        29.95R
$$

AZZ027-028-071200-
SOUTHWEST MARICOPA COUNTY AND PINAL COUNTY

CITY           SKY/WX    TMP DP  RH WIND       PRES   REMARKS
CASA GRANDE    NOT AVBL
GILA BEND      FAIR      48  41  75 E5        29.93R
$$

AZZ503-504-507>509-071200-
SOUTHEAST ARIZONA

CITY           SKY/WX    TMP DP  RH WIND       PRES   REMARKS
TUCSON         CLOUDY    55  41  59 E7        29.97S
DAVIS-MONTHAN  CLOUDY    51  39  63 E7        29.96S
NOGALES        CLOUDY    50  40  68 SE5       29.98F
SIERRA VISTA   CLOUDY    47  37  68 E5        29.99F
DOUGLAS        CLOUDY    50  37  61 CALM      30.00F
SAFFORD        MOCLDY    40  29  64 S5        29.95S
$$

AZZ020-021-025-026-031-071200-
SOUTHWEST ARIZONA

CITY           SKY/WX    TMP DP  RH WIND       PRES   REMARKS
YUMA           PTCLDY    53  51  93 CALM      29.92S
$$

CAZ031-033-041-043-047-048-061-071200-
SOUTHERN CALIFORNIA

CITY           SKY/WX    TMP DP  RH WIND       PRES   REMARKS
DOWNTOWN L.A.  MOCLDY    51  49  92 CALM      30.02S
L.A. AIRPORT   MOCLDY    53  47  79 CALM      30.03S
SAN DIEGO      MOCLDY    58  51  78 W6        30.05R
BURBANK        MOCLDY    49  36  61 NW6       30.02S
ONTARIO        CLOUDY    52  48  86 CALM      30.02S
RIVERSIDE      CLOUDY    50  48  93 CALM      30.02S
PALM SPRINGS   PTCLDY    58  41  53 NW12      29.94R
EL CENTRO NAS  PTCLDY    54  37  52 NW7       29.94R
IMPERIAL       PTCLDY    54  40  59 MISG      29.92R
BLYTHE         PTCLDY    45  38  76 N7        29.93R
NEEDLES        PTCLDY    49  26  41 W9        29.93R
$$

NVZ020-UTZ003-071200-
SOUTHERN NEVADA-UTAH

CITY           SKY/WX    TMP DP  RH WIND       PRES   REMARKS
LAS VEGAS      MOCLDY    47   9  21 NE14      30.00R
SALT LAKE CITY CLOUDY    24  15  68 NW10      30.09R WCI  14
$$

NMZ009-TXZ055-071200-
NEW MEXICO-WEST TEXAS

CITY           SKY/WX    TMP DP  RH WIND       PRES   REMARKS
ALBUQUERQUE    CLEAR     33  20  58 SE7       29.90S WCI  27
EL PASO        CLOUDY    50  31  48 SW8       29.94F
$$


........................KEY........................
SKY/WX - SKY CONDITION/WEATHER
TMP    - TEMPERATURE IN FAHRENHEIT
DP     - DEW POINT IN FAHRENHEIT
RH     - RELATIVE HUMIDITY IN PERCENT
WIND   - DIRECTION AND SPEED IN MILES PER HOUR (MPH)
VRB    - VARIABLE WIND DIRECTION
PRES   - MEAN SEA LEVEL PRESSURE IN INCHES OF MERCURY
         F - FALLING PRESSURE   R - RISING PRESSURE
         S - STEADY PRESSURE
VSB    - VISIBILITY IN MILES
HX     - HEAT INDEX IN FAHRENHEIT
WCI    - WIND CHILL INDEX IN FAHRENHEIT
TC     - TEMPERATURE IN CELSIUS WHICH IS ALSO KNOWN AS
         TEMPERATURE IN CENTIGRADE
AFB    - AIR FORCE BASE
         LUKE AFB IS LUKE AIR FORCE BASE
         DAVIS-MONTHAN IS DAVIS-MONTHAN AIR FORCE BASE
NAS    - NAVAL AIR STATION
         EL CENTRO NAS IS EL CENTRO NAVAL AIR STATION
N/A    - NOT AVAILABLE





USA.gov is the U.S. government's official web portal to all federal, state and local government web resources and services.